Edson, Alberta

6:07 AM MDT on July 28, 2017 (GMT -0600)
Edson

Weather History for CZZJ - January, 2013

Change the Weather History Date:

Wednesday, January 16, 2013

  Actual Average (CYET) Record (CYET)
Temperature  
Mean Temperature 40 °F -  
Max Temperature 50 °F 19 °F 51 °F (2009)
Min Temperature 29 °F 0 °F -23 °F (2012)
Degree Days  
Heating Degree Days 26    
Moisture  
Dew Point 27 °F    
Average Humidity 68    
Maximum Humidity 100    
Minimum Humidity 32    
Precipitation  
Precipitation 0.04 in - - ()
Sea Level Pressure  
Sea Level Pressure 30.11 in    
Wind  
Wind Speed 7 mph ()    
Max Wind Speed 18 mph    
Max Gust Speed 34 mph    
Averages and records for this station are not official NWS values.
T = Trace of Precipitation, MM = Missing Value Source: Averaged Metar Reports

Daily Weather History Graph

Daily Weather History Graph

Search for Another Location

Airport or City:

Trip Planner

Search our weather history database for the weather conditions in past years. The results will help you decide how hot, cold, wet, or windy it might be!

Date:

Astronomy

Jan. 16, 2013 Rise Set
Actual Time 8:52 AM MST 4:59 PM MST
Civil Twilight 8:12 AM MST 5:39 PM MST
Nautical Twilight 7:28 AM MST 6:23 PM MST
Astronomical Twilight 6:46 AM MST 7:05 PM MST
Moon 10:35 AM MST (1/16) 11:56 PM MST (1/16)
Length of Visible Light 9h 27m
Length of Day
8h 06m
Waxing Crescent, 29% of the Moon is Illuminated
Jan 16
Waxing Crescent
Jan 18
First Quarter
Jan 26
Full
Feb 3
Last Quarter
Feb 10
New

Hourly Weather History & Observations

Time (MST) Temp. Windchill Dew Point Humidity Pressure Visibility Wind Dir Wind Speed Gust Speed Precip Events Conditions
12:00 AM 49.1 °F - 21.0 °F 33% 29.85 in - West 18.4 mph 34.5 mph N/A   Unknown
1:00 AM 48.2 °F - 21.6 °F 35% 29.88 in - West 16.1 mph 31.1 mph N/A   Unknown
2:00 AM 46.8 °F - 22.8 °F 39% 29.91 in - WNW 12.7 mph 29.9 mph N/A   Unknown
3:00 AM 45.9 °F 38.8 °F 23.2 °F 41% 29.94 in - WNW 17.3 mph 34.5 mph N/A   Unknown
4:00 AM 45.0 °F 39.3 °F 23.4 °F 43% 29.97 in - WNW 11.5 mph 21.9 mph N/A   Unknown
5:00 AM 44 °F - 24 °F 32% 30.00 in - West 12.7 mph - -  
6:00 AM 43.7 °F 38.1 °F 24.6 °F 47% 30.00 in - WNW 10.4 mph 21.9 mph N/A   Unknown
7:00 AM 39.4 °F - 27.1 °F 62% 30.04 in - NNW 2.3 mph - N/A   Unknown
8:00 AM 38.5 °F 36.1 °F 27.7 °F 65% 30.04 in - NNW 3.5 mph - N/A   Unknown
9:00 AM 37.0 °F - 28.4 °F 71% 30.08 in - NNW 2.3 mph - N/A   Unknown
10:00 AM 36.5 °F 33.9 °F 28.9 °F 74% 30.11 in - NW 3.5 mph - N/A   Unknown
11:00 AM 37 °F - 29 °F 62% 30.13 in - NNW 1.2 mph - -  
11:00 AM 36.7 °F - 28.6 °F 72% 30.13 in - NNW 1.2 mph - N/A   Unknown
12:00 PM 36.7 °F - 28.4 °F 72% 30.14 in - North 1.2 mph - N/A   Unknown
1:00 PM 36.9 °F 34.3 °F 28.2 °F 71% 30.15 in - North 3.5 mph - N/A   Unknown
2:00 PM 37.4 °F - 27.9 °F 68% 30.16 in - NNW 2.3 mph - N/A   Unknown
3:00 PM 36.1 °F - 27.9 °F 72% 30.19 in - NNE 2.3 mph - N/A   Unknown
4:00 PM 35.1 °F - 27.9 °F 75% 30.21 in - ENE 2.3 mph - N/A   Unknown
5:00 PM 34 °F - 28 °F 70% 30.23 in - ENE 2.3 mph - -  
5:00 PM 34.0 °F - 27.9 °F 78% 30.23 in - ENE 2.3 mph - N/A   Unknown
6:00 PM 33.1 °F - 28.9 °F 85% 30.26 in - East 2.3 mph - N/A   Unknown
7:00 PM 31.5 °F - 28.6 °F 89% 30.26 in - ENE 1.2 mph - N/A   Unknown
8:00 PM 30.9 °F 27.5 °F 27.9 °F 88% 30.25 in - East 3.5 mph - N/A   Unknown
9:00 PM 30.6 °F - 28.2 °F 91% 30.24 in - East 2.3 mph - N/A   Unknown
10:00 PM 30.2 °F - 28.2 °F 92% 30.23 in - Calm Calm - N/A   Unknown
11:00 PM 29 °F - 29 °F 100% 30.20 in - East 2.3 mph - -  
11:00 PM 29.5 °F - 29.1 °F 99% 30.20 in - East 2.3 mph - 0.05 in   Unknown